West Palm Beach, FL

3:35 AM EST on December 11, 2016 (GMT -0500)
Palm Beach International

Weather History for KPBI - December, 2014

Change the Weather History Date:

Wednesday, December 24, 2014

  Actual Average Record
Temperature  
Mean Temperature 81 °F 67 °F  
Max Temperature 85 °F 75 °F 88 °F (1941)
Min Temperature 76 °F 59 °F 28 °F (1989)
Degree Days  
Heating Degree Days 0 2  
Month to date heating degree days 25 38  
Since 1 July heating degree days 42 50  
Cooling Degree Days 16 4  
Month to date cooling degree days 133 127  
Year to date cooling degree days 4273 3993  
Growing Degree Days 30 (Base 50)    
Moisture  
Dew Point 73 °F    
Average Humidity 78    
Maximum Humidity 91    
Minimum Humidity 65    
Precipitation  
Precipitation 0.03 in 0.11 in 1.76 in (1945)
Month to date precipitation 0.44 2.60  
Year to date precipitation 59.97 61.55  
Snow  
Snow 0.00 in - - ()
Month to date snowfall 0.0  
Since 1 July snowfall 0.0  
Snow Depth 0.00 in    
Sea Level Pressure  
Sea Level Pressure 29.93 in    
Wind  
Wind Speed 13 mph (SSE)    
Max Wind Speed 21 mph    
Max Gust Speed 26 mph    
Visibility 10 miles    
Events      
T = Trace of Precipitation, MM = Missing Value Source: NWS Daily Summary

Daily Weather History Graph

Daily Weather History Graph

Search for Another Location

Airport or City:

Trip Planner

Search our weather history database for the weather conditions in past years. The results will help you decide how hot, cold, wet, or windy it might be!

Date:

Astronomy

Dec. 24, 2014 Rise Set
Actual Time 7:06 AM EST 5:34 PM EST
Civil Twilight 6:40 AM EST 5:59 PM EST
Nautical Twilight 6:11 AM EST 6:28 PM EST
Astronomical Twilight 5:43 AM EST 6:56 PM EST
Moon 9:10 AM EST (12/24) 8:40 PM EST (12/24)
Length of Visible Light 11h 18m
Length of Day
10h 28m
Waxing Crescent, 9% of the Moon is Illuminated
Dec 24
Waxing Crescent
Dec 28
First Quarter
Jan 4
Full
Jan 13
Last Quarter
Jan 20
New

Hourly Weather History & Observations

Time (EST) Temp. Heat Index Dew Point Humidity Pressure Visibility Wind Dir Wind Speed Gust Speed Precip Events Conditions
12:53 AM 75.9 °F - 71.1 °F 85% 29.93 in 10.0 mi SE 11.5 mph - N/A   Partly Cloudy
1:53 AM 75.9 °F - 71.1 °F 85% 29.93 in 10.0 mi SSE 12.7 mph - N/A   Partly Cloudy
2:53 AM 77.0 °F - 71.1 °F 82% 29.92 in 10.0 mi SSE 15.0 mph 24.2 mph N/A   Scattered Clouds
3:53 AM 77.0 °F - 72.0 °F 84% 29.91 in 10.0 mi SSE 13.8 mph - N/A   Scattered Clouds
4:53 AM 77.0 °F - 71.1 °F 82% 29.91 in 10.0 mi SSE 10.4 mph - N/A   Scattered Clouds
5:53 AM 77.0 °F - 71.1 °F 82% 29.90 in 10.0 mi SSE 12.7 mph - N/A   Partly Cloudy
6:53 AM 75.9 °F - 71.1 °F 85% 29.92 in 10.0 mi SSE 10.4 mph - N/A   Mostly Cloudy
7:53 AM 77.0 °F - 71.1 °F 82% 29.94 in 10.0 mi South 9.2 mph - N/A   Mostly Cloudy
8:53 AM 80.1 °F 83.8 °F 72.0 °F 76% 29.94 in 10.0 mi South 12.7 mph - N/A   Scattered Clouds
9:14 AM 80.1 °F 83.8 °F 72.0 °F 76% 29.96 in 10.0 mi SSE 13.8 mph - N/A   Mostly Cloudy
9:53 AM 81.0 °F 85.2 °F 72.0 °F 74% 29.96 in 10.0 mi SSE 19.6 mph - N/A   Mostly Cloudy
10:53 AM 82.0 °F 86.7 °F 72.0 °F 71% 29.96 in 10.0 mi South 19.6 mph 23.0 mph N/A   Mostly Cloudy
11:53 AM 82.9 °F 88.8 °F 73.0 °F 72% 29.94 in 10.0 mi South 15.0 mph - N/A   Mostly Cloudy
12:53 PM 84.0 °F 89.6 °F 72.0 °F 67% 29.91 in 10.0 mi South 17.3 mph - N/A   Mostly Cloudy
1:07 PM 84.0 °F 90.2 °F 73.0 °F 69% 29.91 in 10.0 mi South 15.0 mph 20.7 mph N/A   Mostly Cloudy
1:53 PM 81.0 °F 85.8 °F 73.0 °F 77% 29.91 in 10.0 mi South 17.3 mph - N/A   Mostly Cloudy
2:26 PM 82.0 °F 87.4 °F 73.0 °F 74% 29.91 in 10.0 mi South 9.2 mph 24.2 mph N/A   Mostly Cloudy
2:53 PM 82.0 °F 87.4 °F 73.0 °F 74% 29.90 in 10.0 mi South 16.1 mph 26.5 mph N/A   Mostly Cloudy
3:10 PM 82.9 °F 88.8 °F 73.0 °F 72% 29.90 in 10.0 mi SSE 17.3 mph - N/A   Mostly Cloudy
3:47 PM 82.4 °F 88.2 °F 73.4 °F 74% 29.89 in 10.0 mi SSE 15.0 mph - N/A   Scattered Clouds
3:53 PM 81.0 °F 85.8 °F 73.0 °F 77% 29.90 in 10.0 mi South 15.0 mph - N/A   Scattered Clouds
4:53 PM 80.1 °F 84.2 °F 73.0 °F 79% 29.90 in 10.0 mi South 19.6 mph 25.3 mph N/A   Scattered Clouds
5:53 PM 79.0 °F - 73.9 °F 84% 29.91 in 10.0 mi South 13.8 mph - 0.02 in   Mostly Cloudy
6:53 PM 79.0 °F - 73.9 °F 84% 29.93 in 10.0 mi South 11.5 mph - N/A   Mostly Cloudy
7:53 PM 78.1 °F - 73.9 °F 87% 29.95 in 10.0 mi South 10.4 mph - N/A   Scattered Clouds
8:53 PM 78.1 °F - 73.9 °F 87% 29.96 in 10.0 mi South 8.1 mph - N/A   Mostly Cloudy
9:53 PM 78.1 °F - 75.0 °F 90% 29.96 in 10.0 mi South 9.2 mph - 0.01 in   Mostly Cloudy
10:53 PM 78.1 °F - 73.9 °F 87% 29.96 in 10.0 mi South 11.5 mph 18.4 mph N/A   Mostly Cloudy
11:53 PM 78.1 °F - 73.9 °F 87% 29.95 in 10.0 mi South 9.2 mph - N/A   Mostly Cloudy